    C/2003 K2 = SWAN's Comet in April

T 2003 Apr. 10.76760 TT                                 Nakano

q   0.6429121            (2000.0)            P               Q

                   Peri.    0.04889     +0.00624650     -0.98399170

                   Node    89.59399     +0.91740369     -0.06523318

e   1.0            Incl.   10.25965     +0.39790884     +0.16584620

From 78 observations 2003 May 26-28.

 

Date/        TT  R.A.(2000) Decl.     Delta   r     Daily motion  Mag.  Moon Age

              h    h  m       。  ,                      ,  / PA 。  m1      。

2003 Apr. 20 12  03 58.18  +22 53.7   1.261  0.676   101.0 /  70  12.3  161  .81

          21 12  04 05.07  +23 28.1   1.252  0.682   101.5 /  70  12.3  148  .71

          22 12  04 12.04  +24 01.6   1.243  0.690   101.9 /  71  12.4  136  .61

          23 12  04 19.11  +24 34.2   1.235  0.698   102.3 /  72  12.4  125  .50

          24 12  04 26.26  +25 05.6   1.227  0.706   102.7 /  72  12.4  113  .40

          25 12  04 33.49  +25 35.9   1.220  0.715   103.0 /  73  12.5  102  .30

          26 12  04 40.81  +26 05.0   1.213  0.724   103.2 /  74  12.5   92  .21

          27 12  04 48.20  +26 32.9   1.207  0.734   103.4 /  75  12.6   81  .14

          28 12  04 55.67  +26 59.3   1.202  0.744   103.6 /  76  12.6   71  .08

          29 12  05 03.20  +27 24.4   1.197  0.755   103.7 /  76  12.7   61  .04

          30 12  05 10.80  +27 47.9   1.192  0.766   103.7 /  77  12.7   51  .01

     May   1 12  05 18.45  +28 10.0   1.189  0.777   103.7 /  78  12.8   41  .00

           2 12  05 26.15  +28 30.4   1.185  0.789   103.6 /  79  12.8   31  .01

           3 12  05 33.89  +28 49.2   1.183  0.801   103.4 /  80  12.9   21  .03

           4 12  05 41.66  +29 06.3   1.181  0.813   103.2 /  81  13.0   11  .08

           5 12  05 49.45  +29 21.7   1.179  0.826   102.9 /  82  13.0    3  .14

           6 12  05 57.27  +29 35.4   1.179  0.838   102.6 /  83  13.1   11  .21

           7 12  06 05.08  +29 47.3   1.178  0.851   102.1 /  84  13.2   22  .30

           8 12  06 12.90  +29 57.4   1.179  0.864   101.6 /  85  13.2   32  .40

           9 12  06 20.70  +30 05.8   1.180  0.878   101.1 /  86  13.3   44  .50

          10 12  06 28.47  +30 12.4   1.182  0.891   100.5 /  87  13.4   55  .61

          11 12  06 36.22  +30 17.3   1.184  0.905    99.8 /  88  13.4   68  .71

          12 12  06 43.92  +30 20.4   1.187  0.919    99.0 /  89  13.5   80  .81

          13 12  06 51.57  +30 21.9   1.190  0.933    98.2 /  90  13.6   93  .90

          14 12  06 59.16  +30 21.6   1.194  0.947    97.4 /  91  13.6  106  .96

          15 12  07 06.68  +30 19.8   1.199  0.961    96.5 /  92  13.7  120  .99

          16 12  07 14.12  +30 16.3   1.204  0.975    95.5 /  93  13.8  134 1.00

          17 12  07 21.48  +30 11.4   1.210  0.990    94.5 /  93  13.9  147  .97

          18 12  07 28.75  +30 05.0   1.216  1.004    93.4 /  94  13.9  160  .92

          19 12  07 35.92  +29 57.1   1.223  1.019    92.4 /  95  14.0  172  .85

          20 12  07 42.98  +29 48.0   1.231  1.034    91.2 /  96  14.1  173  .76

          21 12  07 49.94  +29 37.6   1.239  1.048    90.1 /  97  14.2  162  .66

          22 12  07 56.78  +29 26.0   1.248  1.063    88.9 /  98  14.2  151  .55

          23 12  08 03.51  +29 13.2   1.257  1.078    87.7 /  99  14.3  140  .45

          24 12  08 10.12  +28 59.4   1.266  1.093    86.5 /  99  14.4  129  .35

          25 12  08 16.61  +28 44.6   1.276  1.108    85.2 / 100  14.5  118  .27

          26 12  08 22.97  +28 29.0   1.287  1.123    84.0 / 101  14.6  108  .19

          27 12  08 29.21  +28 12.4   1.298  1.138    82.7 / 102  14.6   97  .12

          28 12  08 35.32  +27 55.1   1.309  1.153    81.5 / 102  14.7   87  .06

          29 12  08 41.31  +27 37.1   1.321  1.168    80.2 / 103  14.8   76  .03

          30 12  08 47.17  +27 18.4   1.334  1.183    79.0 / 104  14.9   66  .00

          31 12  08 52.91  +26 59.2   1.347  1.198    77.7 / 104  14.9   55  .00

     June  1 12  08 58.52  +26 39.4   1.360  1.213    76.4 / 105  15.0   45  .02



NAKANO

         **** Don't distribute anyone except personal use only ****

                (C) Copyright 2003 OAA/ComputingSection

write mail from CFAD0::NAKANO on 2003-05-28 20:05:54(JST).

 



戻ります。